This is the latest recevied weather packets stored in our database for station/object G4WLC-1. If no packets are shown the sender has not sent any weather packets the latest 10 day(s).
| Time | Temp. | Humidity | Pressure | Rain* | Wind** | Luminosity | Snow |
|---|---|---|---|---|---|---|---|
| 1777468400 | 20° C | 40% | 1023.2 hPa | 0 mm | - | - | - |
| 1777468101 | 20° C | 38% | 1023.3 hPa | 0 mm | - | - | - |
| 1777467801 | 20° C | 42% | 1023.4 hPa | 0 mm | - | - | - |
| 1777467501 | 20° C | 41% | 1023.3 hPa | 0 mm | - | - | - |
| 1777467201 | 19.44° C | 41% | 1023.2 hPa | 0 mm | - | - | - |
| 1777466901 | 19.44° C | 41% | 1023.3 hPa | 0 mm | - | - | - |
| 1777466601 | 19.44° C | 42% | 1023.2 hPa | 0 mm | - | - | - |
| 1777466301 | 19.44° C | 42% | 1023.4 hPa | 0 mm | - | - | - |
| 1777466001 | 19.44° C | 44% | 1023.3 hPa | 0 mm | - | - | - |
| 1777465701 | 18.89° C | 44% | 1023.2 hPa | 0 mm | - | - | - |
| 1777465401 | 18.89° C | 44% | 1023.3 hPa | 0 mm | - | - | - |
| 1777465101 | 18.89° C | 48% | 1023.1 hPa | 0 mm | - | - | - |
| 1777464801 | 18.89° C | 48% | 1023.4 hPa | 0 mm | - | - | - |
| 1777464501 | 18.33° C | 48% | 1023.2 hPa | 0 mm | - | - | - |
| 1777464201 | 18.33° C | 48% | 1023.4 hPa | 0 mm | - | - | - |
| 1777463901 | 18.33° C | 46% | 1023.3 hPa | 0 mm | - | - | - |
| 1777463601 | 17.78° C | 47% | 1023.3 hPa | 0 mm | - | - | - |
| 1777463301 | 18.33° C | 45% | 1023.2 hPa | 0 mm | - | - | - |
| 1777463001 | 18.33° C | 49% | 1023.3 hPa | 0 mm | - | - | - |
| 1777462701 | 18.33° C | 50% | 1023.2 hPa | 0 mm | - | - | - |
| 1777462401 | 17.78° C | 50% | 1023.1 hPa | 0 mm | - | - | - |
| 1777462101 | 17.78° C | 50% | 1023.3 hPa | 0 mm | - | - | - |
| 1777461801 | 17.78° C | 51% | 1023.3 hPa | 0 mm | - | - | - |
| 1777461501 | 17.78° C | 51% | 1023.4 hPa | 0 mm | - | - | - |
| 1777461201 | 17.22° C | 51% | 1023.3 hPa | 0 mm | - | - | - |
* Rain latest hour (hover to see other rain measurements)
** Current wind speed in m/s (hover to see current wind gust speed)